Location: Cannifist
(18.2333°N, 63.0167°W)
Time: 21:21:38
(UTC+00:00)

Yuri Rocket - Pass Details

Date: 27 February 2020
Orbit: 568 x 1914 km, 28.2° (Epoch: 09 April)

Event Time Altitude Azimuth Distance (km) Brightness Sun altitude
Rises 22:27:28 0° 291° (WNW) 4,162 8.5 -3.2°
Reaches altitude 10° 22:30:46 10° 290° (WNW) 2,966 7.7 -4.0°
Maximum altitude 22:37:44 71° 207° (SSW) 898 4.0 -5.6°
Drops below altitude 10° 22:42:45 10° 123° (ESE) 2,167 5.4 -6.8°
Enters shadow 22:44:22 - 121° (ESE) 2,780 5.9 -7.2°
